{"data":{"norad_id":63058,"intl_designator":"2025-035G","name":"STARLINK-11418 [DTC]","alt_names":[],"object_type":"PAYLOAD","status":"ACTIVE","operator":null,"country":"US","launch_date":"2025-02-21","launch_site_code":"AFETR","launch_vehicle":null,"mission":null,"orbit_class":"UNKNOWN","rcs_meters":null,"size_class":null,"mass_kg":null,"dimensions":null,"purposes":["comms"],"wikipedia_slug":null,"has_3d_model":false,"image_url":null,"decayed_at":null,"tle_current":{"epoch":"2026-09-21T01:29:25.778688Z","epoch_age_seconds":116880,"freshness":"FRESH","line1":"1 63058U 25035G   26264.06210392  .00158079  00000+0  12105-2 0  9990","line2":"2 63058  42.9986 278.0799 0001298 256.2800 103.7924 15.70872362 91824","mean_motion":15.70872362,"eccentricity":0.0001298,"inclination_deg":42.9986,"raan_deg":278.0799,"arg_perigee_deg":256.28,"mean_anomaly_deg":103.7924,"bstar":0.0012105,"rev_number":9182,"period_min":91.66880994498,"perigee_km":355.52842326814,"apogee_km":357.27670973961,"semimajor_km":6734.5395665039,"source":"CELESTRAK","updated_at":"2026-09-22T09:00:49.751102Z"}}}